Вернуться в каталог

ATLAS 5 CENTAUR DEB

АктивенHEO
NORAD 44016·DEBRIS·🇺🇸 United States

Запущен Sep 17, 2014 с Cape Canaveral Space Force Station

Loading…

Ближайшие Пролёты (ближайшие 24 часа)

TLE

СвежийSource: Space-Track

Эпоха: Sep 8, 2026, 12:51 UTC

1 44016U 14055BX  26251.53597745 -.00000086  00000-0  00000-0 0  9996
2 44016  19.8252 144.6831 4693920 161.0339 224.8913  1.83868310 52933

Отслеживайте ATLAS 5 CENTAUR DEB в реальном времени с AllMySat

Download on the App Store